Location: Ariel
(45.9570°N, 122.5700°W)
Time: 10:31:59
(UTC-07:00)

Transit 4A - Pass Details

Date: 24 July 2019
Orbit: 863 x 981 km, 66.8° (Epoch: 24 August)

Event Time Altitude Azimuth Distance (km) Brightness Sun altitude
Rises 03:12:42 0° 238° (WSW) 3,654 - -19.1°
Reaches altitude 10° 03:15:25 10° 246° (WSW) 2,720 - -18.9°
Exits shadow 03:17:13 19° 255° (WSW) 2,154 9.4 -18.7°
Maximum altitude 03:21:22 40° 314° (NW) 1,415 8.9 -18.4°
Drops below altitude 10° 03:27:23 10° 23° (NNE) 2,739 11.6 -17.8°
Sets 03:30:09 0° 31° (NNE) 3,683 12.8 -17.6°
